Regional Weather Roundup
Issued by NWS

Home | Current Version | Previous Version | Text Only | Print | Product List | Glossary Off
Versions: 1 2 3 4 5 6 7 8 9 10 11 12 13 14 15 16 17 18 19 20 21 22 23 24 25 26 27 28 29 30 31 32 33 34 35 36 37 38 39 40 41 42 43 44 45 46 47 48 49 50

000
ASUS43 KFSD 300910
RWRSD

WEATHER ROUNDUP FOR SOUTH DAKOTA
NATIONAL WEATHER SERVICE SIOUX FALLS SD
400 AM CDT THU MAR 30 2017

NOTE: "FAIR" INDICATES FEW OR NO CLOUDS BELOW 12,000 FEET WITH NO
SIGNIFICANT WEATHER AND/OR OBSTRUCTIONS TO VISIBILITY.


SDZ001>005-009-010-012>017-301000-
NORTHWEST AND NORTH CENTRAL SOUTH DAKOTA

CITY           SKY/WX    TMP DP  RH WIND       PRES   REMARKS
BUFFALO          N/A     42  39  89 S10       29.74F
FAITH            N/A     33  33 100 MISG      29.85F
MOBRIDGE       CLEAR     35  30  82 SE8       29.90F WCI  29
$$

SDZ012>016-024>037-041>051-057-063-072>074-301000-
SOUTHWEST AND SOUTH CENTRAL SOUTH DAKOTA

CITY           SKY/WX    TMP DP  RH WIND       PRES   REMARKS
RAPID CTY ARPT PTCLDY    35  33  92 SE7       29.84F WCI  29
PIERRE         CLEAR     33  31  92 CALM      29.92F
CUSTER         FOG       32  30  92 W6        29.86F VSB 1/2 WCI  26
ELLSWORTH AFB  PTCLDY    40  39  97 CALM      29.82F
PHILIP         CLEAR     30  29  96 E5        29.89F WCI  25
PINE RIDGE     CLEAR     30  29  96 CALM      29.87F
SPEARFISH      FAIR      39  32  75 CALM      29.81F
WINNER         CLOUDY    40  36  86 E7        29.91F
$$

SDZ004>011-016>023-039-040-301000-
NORTHEAST SOUTH DAKOTA

CITY           SKY/WX    TMP DP  RH WIND       PRES   REMARKS
ABERDEEN       CLOUDY    37  33  85 SE7       29.97F
WATERTOWN      CLOUDY    38  36  92 E9        29.95F
BROOKINGS      CLOUDY    38  35  89 E9        29.93F
SISSETON         N/A     39  38  96 S6        29.98F
$$

SDZ017-020-022-023-036>040-048>070-301000-
SOUTHEAST SOUTH DAKOTA

CITY           SKY/WX    TMP DP  RH WIND       PRES   REMARKS
SIOUX FALLS    CLOUDY    39  38  96 NE14      29.90F
HURON          CLOUDY    40  37  89 E6        29.95F
CHAMBERLAIN    CLOUDY    38  38  97 CALM      29.93F
MITCHELL       CLOUDY    40  36  86 NE7       29.94F
YANKTON        CLOUDY    39  36  87 N13       29.88F
$$

ABBREVIATIONS USED IN REMARKS
   TC - TEMPERATURE IN CELSIUS
  WCI - WIND CHILL INDEX
   HX - HEAT INDEX
  VSB - VISIBILITY





USA.gov is the U.S. government's official web portal to all federal, state and local government web resources and services.